User: anonymous   Login
Location: Mascot Post Office (historical)
(40.2645°N, 99.5462°W)
Time: 17:42:21
(UTC+00:00)
Language:

MOS 1-B Rocket - Orbit

View from above orbital plane
View from above orbital plane
View from above satellite
View from above satellite

Ground track
Ground track

The orbit data is extracted from the following two-line orbital elements,

1 20491U 90013D   20270.81097841 +.00000548 +00000-0 +10871-2 0  9994
2 20491 099.0544 152.5822 0469055 020.6351 341.3029 13.03575284456780
Epoch (UTC): 26 September 2020 19:27:48
Eccentricity: 0.0469055
inclination: 99.0544°
perigee height: 890 km
apogee height: 1606 km
right ascension of ascending node: 152.5822°
argument of perigee: 20.6351°
revolutions per day: 13.03575284
mean anomaly at epoch: 341.3029°
orbit number at epoch: 45678

The dashed part of the orbit path shows where the satellite is in the earth's shadow,  

DLR